Regional Weather Roundup
Issued by NWS Sioux Falls, SD

Home | Current Version | Previous Version | Graphics & Text | Print | Product List | Glossary Off
Versions: 1 2 3 4 5 6 7 8 9 10 11 12 13 14 15 16 17 18 19 20 21 22 23 24 25 26 27 28 29 30 31 32 33 34 35 36 37 38 39 40 41 42 43 44 45 46 47 48 49 50

668
ASUS43 KFSD 141102
RWRFSD

WEATHER ROUNDUP FOR SE SOUTH DAKOTA/SW MINNESOTA/NW IOWA
NATIONAL WEATHER SERVICE SIOUX FALLS SD
500 AM CST THU DEC 14 2017

NOTE: "FAIR" INDICATES FEW OR NO CLOUDS BELOW 12,000 FEET WITH NO
SIGNIFICANT WEATHER AND OR OBSTRUCTIONS TO VISIBILITY.


SDZ038>040-050-052>070-141200-
SOUTHEAST SOUTH DAKOTA

CITY           SKY/WX    TMP DP  RH WIND       PRES   REMARKS
BROOKINGS      CLOUDY    27  25  92 NW3       29.98R
CHAMBERLAIN    CLOUDY    29  26  92 CALM      30.01F
HURON          CLOUDY    28  24  85 NW9       30.00R WCI  19
MADISON        CLOUDY    27  27 100 CALM      29.97S
MITCHELL       MOCLDY    33  26  75 NW10      30.01S WCI  25
SIOUX FALLS    FRZ DRZL  28  26  92 E5        29.99R WCI  23
WINNER         CLOUDY    36  28  73 NW12      30.01F
YANKTON        CLOUDY    33  25  72 W10       30.01S WCI  25
$$

MNZ071-072-080-081-089-090-097-098-141200-
SOUTHWEST MINNESOTA

CITY           SKY/WX    TMP DP  RH WIND       PRES   REMARKS
FAIRMONT       CLOUDY    18  14  84 NW5       30.01R WCI  11
JACKSON        CLOUDY    23  18  80 MISG      29.99R
LUVERNE        CLOUDY    27  23  86 CALM      29.99S
MARSHALL       CLOUDY    21  17  84 W5        30.01R WCI  15
MONTEVIDEO     CLOUDY    19  16  86 N7        30.01S WCI  10
PIPESTONE      CLOUDY    25  21  86 CALM      29.97R
REDWOOD FALLS  CLOUDY    21  14  74 VRB3      30.01R
WINDOM           N/A     21   9  58 W13       29.98S WCI   9
WORTHINGTON    CLOUDY    21  18  88 N6        29.99R WCI  13
$$

IAZ001>003-012>014-020>022-031-032-NEZ013-014-SDZ071-141200-
NORTHWEST IOWA

CITY           SKY/WX    TMP DP  RH WIND       PRES   REMARKS
CHEROKEE       CLOUDY    26  22  85 NE5       30.01S WCI  20
DENISON        CLOUDY    28  23  80 N6        30.03R WCI  22
ESTHERVILLE    CLOUDY    21  16  81 N3        29.99R
LE MARS        CLOUDY    28  25  86 NE5       30.01R WCI  23
ORANGE CITY    CLOUDY    27  25  93 E3        29.99S
SHELDON        CLOUDY    23  21  93 NE5       29.98S WCI  17
SIOUX CITY     CLOUDY    31  25  78 SE3       30.02R
SPENCER        MOCLDY    21  16  81 N6        30.00R WCI  13
STORM LAKE     CLOUDY    23  19  86 N9        29.99S WCI  13
$$

ABBREVIATIONS USED IN REMARKS
   TC - TEMPERATURE IN CELSIUS
  WCI - WIND CHILL INDEX
   HX - HEAT INDEX
  VSB - VISIBILITY





USA.gov is the U.S. government's official web portal to all federal, state and local government web resources and services.